TAP1928 LPPT-LPPR

Flight info

Callsign TAP1928
Flight time 0h 30m
Altitude 24000
Route IXIDA DCT ABLEG
Aircraft A321/M-SDE3FGHIRWY/LB1

Departure

Time 2026-05-06 09:20
Airport Lisbon Humberto Delgado Airport (LPPT)

Arrival

Time 2026-05-06 09:51
Airport Francisco de Sá Carneiro Airport (LPPR)
Time Latitude Longitude Altitude Speed Heading
2026-05-06 09:10 38.76718 -9.13960 351 ft 0 kts 78°
2026-05-06 09:13 38.76716 -9.13971 351 ft 4 kts 80°
2026-05-06 09:13 38.76713 -9.14005 350 ft 4 kts 90°
2026-05-06 09:13 38.76716 -9.14039 351 ft 4 kts 112°
2026-05-06 09:14 38.76729 -9.14061 346 ft 2 kts 166°
2026-05-06 09:14 38.76731 -9.14061 353 ft 0 kts 168°
2026-05-06 09:17 38.76721 -9.14059 349 ft 5 kts 168°
2026-05-06 09:17 38.76686 -9.14049 343 ft 5 kts 168°
2026-05-06 09:17 38.76656 -9.14048 343 ft 4 kts 181°
2026-05-06 09:17 38.76631 -9.14049 343 ft 3 kts 181°
2026-05-06 09:18 38.76615 -9.14049 343 ft 2 kts 181°
2026-05-06 09:18 38.76608 -9.14050 343 ft 1 kts 186°
2026-05-06 09:18 38.76595 -9.14071 343 ft 8 kts 230°
2026-05-06 09:18 38.76569 -9.14164 342 ft 15 kts 297°
2026-05-06 09:19 38.76617 -9.14295 335 ft 17 kts 295°
2026-05-06 09:19 38.76662 -9.14373 336 ft 7 kts 357°
2026-05-06 09:19 38.76701 -9.14357 334 ft 6 kts 21°
2026-05-06 09:19 38.76852 -9.14277 351 ft 54 kts 22°
2026-05-06 09:20 38.77388 -9.13992 363 ft 110 kts 25°
2026-05-06 09:20 38.78238 -9.13536 369 ft 153 kts 23°
2026-05-06 09:20 38.79304 -9.12978 597 ft 169 kts 20°
2026-05-06 09:20 38.80402 -9.12394 1226 ft 170 kts 19°
2026-05-06 09:21 38.81489 -9.11794 1867 ft 170 kts 25°
2026-05-06 09:21 38.82530 -9.10989 2244 ft 182 kts 30°
2026-05-06 09:21 38.83668 -9.10105 2433 ft 205 kts 28°
2026-05-06 09:21 38.84966 -9.09104 2686 ft 231 kts 30°
2026-05-06 09:22 38.86420 -9.08034 3214 ft 246 kts 21°
2026-05-06 09:22 38.88092 -9.07507 4036 ft 249 kts
2026-05-06 09:22 38.89805 -9.07134 4888 ft 252 kts
2026-05-06 09:22 38.91553 -9.06763 5644 ft 256 kts
2026-05-06 09:23 38.93327 -9.06392 6441 ft 260 kts
2026-05-06 09:23 38.95125 -9.06016 7192 ft 264 kts
2026-05-06 09:23 38.96951 -9.05631 7891 ft 269 kts
2026-05-06 09:23 38.98808 -9.05231 8652 ft 272 kts
2026-05-06 09:24 39.00683 -9.04825 9432 ft 275 kts
2026-05-06 09:24 39.02590 -9.04413 10107 ft 280 kts
2026-05-06 09:24 39.04574 -9.03988 10403 ft 300 kts
2026-05-06 09:24 39.06713 -9.03534 10540 ft 323 kts
2026-05-06 09:25 39.08979 -9.03050 10902 ft 335 kts
2026-05-06 09:25 39.11296 -9.02552 11530 ft 340 kts
2026-05-06 09:25 39.13641 -9.02047 12187 ft 344 kts
2026-05-06 09:25 39.16021 -9.01532 12824 ft 348 kts
2026-05-06 09:26 39.18425 -9.01012 13480 ft 352 kts
2026-05-06 09:26 39.20860 -9.00485 14081 ft 356 kts
2026-05-06 09:26 39.23318 -8.99955 14653 ft 360 kts
2026-05-06 09:26 39.25800 -8.99423 15255 ft 363 kts
2026-05-06 09:27 39.28270 -8.98893 15828 ft 367 kts
2026-05-06 09:27 39.30800 -8.98347 16396 ft 370 kts
2026-05-06 09:27 39.33360 -8.97792 16955 ft 374 kts
2026-05-06 09:27 39.35945 -8.97233 17521 ft 378 kts
2026-05-06 09:28 39.38557 -8.96669 18075 ft 381 kts
2026-05-06 09:28 39.41187 -8.96099 18579 ft 385 kts
2026-05-06 09:28 39.43840 -8.95521 19049 ft 388 kts
2026-05-06 09:28 39.46518 -8.94938 19535 ft 391 kts
2026-05-06 09:29 39.49209 -8.94354 20016 ft 394 kts
2026-05-06 09:29 39.51929 -8.93762 20485 ft 397 kts
2026-05-06 09:29 39.54663 -8.93165 20954 ft 400 kts
2026-05-06 09:29 39.57416 -8.92560 21415 ft 403 kts
2026-05-06 09:30 39.60188 -8.91950 21880 ft 406 kts
2026-05-06 09:30 39.62984 -8.91339 22337 ft 409 kts
2026-05-06 09:30 39.65760 -8.90737 22774 ft 412 kts
2026-05-06 09:30 39.68634 -8.90114 23226 ft 415 kts
2026-05-06 09:31 39.71449 -8.89501 23704 ft 416 kts
2026-05-06 09:31 39.74312 -8.88876 23979 ft 418 kts
2026-05-06 09:31 39.77173 -8.88248 24046 ft 415 kts
2026-05-06 09:31 39.80012 -8.87622 24057 ft 413 kts
2026-05-06 09:32 39.82846 -8.86997 24057 ft 413 kts
2026-05-06 09:32 39.85675 -8.86374 24057 ft 412 kts
2026-05-06 09:32 39.88508 -8.85752 24057 ft 412 kts
2026-05-06 09:32 39.91319 -8.85136 23870 ft 405 kts
2026-05-06 09:33 39.94089 -8.84528 23375 ft 401 kts
2026-05-06 09:33 39.96826 -8.83925 22898 ft 395 kts
2026-05-06 09:33 39.99521 -8.83330 22451 ft 389 kts
2026-05-06 09:33 40.02170 -8.82744 21985 ft 384 kts
2026-05-06 09:34 40.04784 -8.82165 21543 ft 379 kts
2026-05-06 09:34 40.07371 -8.81595 21092 ft 374 kts
2026-05-06 09:34 40.09925 -8.81031 20641 ft 371 kts
2026-05-06 09:34 40.12460 -8.80469 20194 ft 367 kts
2026-05-06 09:35 40.14973 -8.79911 19757 ft 364 kts
2026-05-06 09:35 40.17466 -8.79355 19306 ft 362 kts
2026-05-06 09:35 40.19940 -8.78805 18870 ft 360 kts
2026-05-06 09:35 40.22398 -8.78259 18435 ft 357 kts
2026-05-06 09:36 40.24840 -8.77718 17968 ft 355 kts
2026-05-06 09:36 40.27267 -8.77180 17535 ft 351 kts
2026-05-06 09:36 40.29633 -8.76654 17114 ft 348 kts
2026-05-06 09:36 40.32007 -8.76124 16712 ft 344 kts
2026-05-06 09:37 40.34352 -8.75600 16303 ft 340 kts
2026-05-06 09:37 40.36678 -8.75081 15907 ft 337 kts
2026-05-06 09:37 40.38979 -8.74568 15509 ft 334 kts
2026-05-06 09:37 40.41265 -8.74058 15111 ft 332 kts
2026-05-06 09:38 40.43536 -8.73551 14716 ft 330 kts
2026-05-06 09:38 40.45795 -8.73047 14310 ft 328 kts
2026-05-06 09:38 40.48039 -8.72546 13926 ft 326 kts
2026-05-06 09:38 40.50270 -8.72049 13503 ft 324 kts
2026-05-06 09:39 40.52490 -8.71555 13098 ft 322 kts
2026-05-06 09:39 40.54687 -8.71063 12701 ft 319 kts
2026-05-06 09:39 40.56869 -8.70572 12313 ft 317 kts
2026-05-06 09:39 40.59036 -8.70082 11917 ft 315 kts
2026-05-06 09:40 40.61188 -8.69595 11514 ft 313 kts
2026-05-06 09:40 40.63334 -8.69116 11126 ft 312 kts
2026-05-06 09:40 40.67595 -8.68163 10332 ft 309 kts
2026-05-06 09:41 40.69675 -8.67693 10194 ft 298 kts
2026-05-06 09:41 40.71684 -8.67240 10022 ft 289 kts
2026-05-06 09:41 40.73647 -8.66796 9796 ft 284 kts
2026-05-06 09:41 40.75588 -8.66354 9463 ft 282 kts
2026-05-06 09:42 40.77517 -8.65915 9108 ft 280 kts
2026-05-06 09:42 40.79429 -8.65482 8742 ft 278 kts
2026-05-06 09:42 40.81334 -8.65051 8336 ft 277 kts
2026-05-06 09:42 40.83213 -8.64626 7981 ft 274 kts
2026-05-06 09:43 40.85084 -8.64205 7619 ft 272 kts
2026-05-06 09:43 40.86943 -8.63786 7264 ft 271 kts
2026-05-06 09:43 40.88795 -8.63369 6911 ft 269 kts 10°
2026-05-06 09:43 40.90630 -8.62954 6571 ft 266 kts 10°
2026-05-06 09:44 40.92442 -8.62545 6206 ft 260 kts 10°
2026-05-06 09:44 40.94172 -8.62153 5873 ft 244 kts 10°
2026-05-06 09:44 40.95800 -8.61784 5568 ft 234 kts 10°
2026-05-06 09:44 40.97348 -8.61431 5289 ft 219 kts 10°
2026-05-06 09:45 40.98850 -8.61337 4998 ft 215 kts 355°
2026-05-06 09:45 41.00314 -8.61694 4714 ft 214 kts 349°
2026-05-06 09:45 41.01765 -8.62083 4425 ft 211 kts 350°
2026-05-06 09:45 41.03188 -8.62463 4165 ft 205 kts 349°
2026-05-06 09:46 41.04556 -8.62828 3893 ft 197 kts 349°
2026-05-06 09:46 41.05879 -8.63180 3628 ft 190 kts 349°
2026-05-06 09:46 41.07148 -8.63516 3384 ft 181 kts 350°
2026-05-06 09:46 41.08375 -8.63835 3154 ft 177 kts 350°
2026-05-06 09:47 41.09568 -8.64144 2935 ft 173 kts 351°
2026-05-06 09:47 41.10736 -8.64448 2711 ft 170 kts 350°
2026-05-06 09:47 41.11891 -8.64749 2486 ft 168 kts 349°
2026-05-06 09:47 41.13031 -8.65045 2285 ft 163 kts 349°
2026-05-06 09:48 41.14123 -8.65329 2072 ft 154 kts 350°
2026-05-06 09:48 41.15142 -8.65596 1860 ft 150 kts 348°
2026-05-06 09:48 41.16155 -8.65861 1661 ft 148 kts 349°
2026-05-06 09:48 41.17164 -8.66124 1465 ft 146 kts 349°
2026-05-06 09:49 41.18165 -8.66386 1272 ft 146 kts 349°
2026-05-06 09:49 41.19154 -8.66644 1088 ft 144 kts 349°
2026-05-06 09:49 41.20081 -8.66885 908 ft 143 kts 349°
2026-05-06 09:49 41.21053 -8.67147 697 ft 142 kts 348°
2026-05-06 09:50 41.22019 -8.67405 526 ft 142 kts 351°
2026-05-06 09:50 41.22994 -8.67650 338 ft 142 kts 349°
2026-05-06 09:50 41.23948 -8.67899 224 ft 133 kts 349°
2026-05-06 09:50 41.24659 -8.68086 201 ft 52 kts 348°
2026-05-06 09:51 41.24861 -8.68140 193 ft 25 kts 349°
2026-05-06 09:51 41.25042 -8.68180 182 ft 28 kts
2026-05-06 09:51 41.25226 -8.68135 179 ft 23 kts 15°
2026-05-06 09:51 41.25294 -8.68074 175 ft 12 kts 67°
2026-05-06 09:52 41.25259 -8.68015 178 ft 6 kts 164°
2026-05-06 09:52 41.25240 -8.68008 179 ft 0 kts 164°
2026-05-06 09:52 41.25226 -8.68003 180 ft 5 kts 164°
2026-05-06 09:52 41.25167 -8.67981 183 ft 13 kts 164°
2026-05-06 09:53 41.25052 -8.67955 182 ft 22 kts 175°
2026-05-06 09:53 41.24889 -8.67912 196 ft 27 kts 162°
2026-05-06 09:53 41.24700 -8.67812 209 ft 31 kts 166°
2026-05-06 09:53 41.24501 -8.67761 215 ft 27 kts 169°
2026-05-06 09:54 41.24333 -8.67715 225 ft 22 kts 162°
2026-05-06 09:54 41.24236 -8.67609 234 ft 14 kts 141°
2026-05-06 09:54 41.24129 -8.67557 237 ft 20 kts 168°
2026-05-06 09:54 41.23995 -8.67521 237 ft 18 kts 168°
2026-05-06 09:55 41.23884 -8.67493 237 ft 15 kts 170°
2026-05-06 09:55 41.23779 -8.67467 237 ft 15 kts 165°
2026-05-06 09:55 41.23705 -8.67371 237 ft 16 kts 136°
2026-05-06 09:55 41.23616 -8.67328 237 ft 9 kts 176°
2026-05-06 09:56 41.23593 -8.67296 237 ft 3 kts 94°
2026-05-06 09:56 41.23592 -8.67279 237 ft 2 kts 95°
2026-05-06 09:56 41.23591 -8.67264 237 ft 2 kts 95°
2026-05-06 09:56 41.23590 -8.67236 237 ft 4 kts 94°
2026-05-06 09:57 41.23589 -8.67225 237 ft 0 kts 93°